Location: Unspecified
(43.4354°N, 0.0000°E)
Time: 11:05:28
(UTC+00:00)

Courier 1B - Pass Details

Date: 18 June 2019
Orbit: 963 x 1209 km, 28.3° (Epoch: 16 July)

Event Time Altitude Azimuth Distance (km) Brightness Sun altitude
Rises 22:01:01 0° 247° (WSW) 4,029 10.8 -17.7°
Reaches altitude 10° 22:04:19 10° 235° (SW) 3,096 10.0 -18.0°
Maximum altitude 22:10:23 26° 183° (S) 2,181 8.8 -18.5°
Enters shadow 22:11:03 25° 175° (S) 2,196 8.8 -18.5°
Drops below altitude 10° 22:16:33 10° 131° (SE) 3,140 - -19.0°
Sets 22:19:56 0° 119° (ESE) 4,098 - -19.2°
